FlightSource - Aviation Photo Database

World Wide Airport Lookup


Search by ICAO
Or
Search by City

FlightSource.ca - Aviation Photo Database - Boscobel Airport Information
Airport Identification
Name: Boscobel Airport
ICAO: KOVS
IATA:
Airport Location
City: Boscobel
Region: WI
Country: United States
Continent: North America
Latitude: 43.1602
Longitude: -90.6755
Airport Information
Type: Small Airport
Elevation: 672 Feet ASL
Flight Status: KOVS
More Info: KOVS
Airport Weather    
Metar: KOVS 202053Z AUTO VRB04KT 10SM CLR 28/19 A2996 RMK AO2 SLP143 T02830189 55011
TAF:


Advertisement